Time,TemperatureF,DewpointF,PressureIn,WindDirection,WindDirectionDegrees,WindSpeedMPH,WindSpeedGustMPH,Humidity,HourlyPrecipIn,Conditions,Clouds,dailyrainin,SoftwareType,DateUTC
2013-05-14 00:04:00,47.7,41.2,30.21,NNE,15,0.0,1.0,78,0.00,,,0.00,Wunderground v.1.15,2013-05-14 05:04:00,
2013-05-14 00:10:00,47.6,41.1,30.21,NNE,16,0.0,1.0,78,0.00,,,0.00,Wunderground v.1.15,2013-05-14 05:10:00,
2013-05-14 00:15:00,47.6,41.1,30.21,NNE,16,0.0,1.0,78,0.00,,,0.00,Wunderground v.1.15,2013-05-14 05:15:00,
2013-05-14 00:21:00,47.6,41.4,30.21,NNE,16,0.0,1.0,79,0.00,,,0.00,Wunderground v.1.15,2013-05-14 05:21:00,
2013-05-14 00:26:00,47.5,41.3,30.21,NNE,17,0.0,1.0,79,0.00,,,0.00,Wunderground v.1.15,2013-05-14 05:26:00,
2013-05-14 00:31:00,47.2,41.0,30.21,NNE,16,0.0,1.0,79,0.00,,,0.00,Wunderground v.1.15,2013-05-14 05:31:00,
2013-05-14 00:37:00,46.9,41.1,30.21,NNE,16,0.0,1.0,80,0.00,,,0.00,Wunderground v.1.15,2013-05-14 05:37:00,
2013-05-14 00:42:00,46.7,40.9,30.21,NNE,16,0.0,1.0,80,0.00,,,0.00,Wunderground v.1.15,2013-05-14 05:42:00,
2013-05-14 00:48:00,46.7,41.2,30.21,NNE,16,0.0,1.0,81,0.00,,,0.00,Wunderground v.1.15,2013-05-14 05:48:00,
2013-05-14 00:53:00,46.6,40.8,30.21,NNE,16,0.0,1.0,80,0.00,,,0.00,Wunderground v.1.15,2013-05-14 05:53:00,
2013-05-14 00:58:00,46.6,40.4,30.21,NNE,16,0.0,1.0,79,0.00,,,0.00,Wunderground v.1.15,2013-05-14 05:58:00,
2013-05-14 01:04:00,46.5,40.7,30.21,NNE,16,0.0,1.0,80,0.00,,,0.00,Wunderground v.1.15,2013-05-14 06:04:00,
2013-05-14 01:10:00,46.4,40.6,30.20,NNE,16,0.0,1.0,80,0.00,,,0.00,Wunderground v.1.15,2013-05-14 06:10:00,
2013-05-14 01:15:00,46.1,40.3,30.20,NNE,16,0.0,1.0,80,0.00,,,0.00,Wunderground v.1.15,2013-05-14 06:15:00,
2013-05-14 01:21:00,45.9,40.7,30.20,NNE,16,0.0,1.0,82,0.00,,,0.00,Wunderground v.1.15,2013-05-14 06:21:00,
2013-05-14 01:26:00,46.0,41.1,30.20,NNE,16,0.0,1.0,83,0.00,,,0.00,Wunderground v.1.15,2013-05-14 06:26:00,
2013-05-14 01:32:00,45.9,40.4,30.20,NNE,16,0.0,1.0,81,0.00,,,0.00,Wunderground v.1.15,2013-05-14 06:32:00,
2013-05-14 01:37:00,45.8,40.9,30.20,NNE,16,0.0,1.0,83,0.00,,,0.00,Wunderground v.1.15,2013-05-14 06:37:00,
2013-05-14 01:43:00,45.6,40.7,30.20,NNE,16,0.0,1.0,83,0.00,,,0.00,Wunderground v.1.15,2013-05-14 06:43:00,
2013-05-14 01:48:00,45.6,40.7,30.20,NNE,16,0.0,1.0,83,0.00,,,0.00,Wunderground v.1.15,2013-05-14 06:48:00,
2013-05-14 01:54:00,45.6,41.0,30.20,NNE,16,0.0,1.0,84,0.00,,,0.00,Wunderground v.1.15,2013-05-14 06:54:00,
2013-05-14 01:59:00,45.3,40.4,30.20,NNE,16,0.0,1.0,83,0.00,,,0.00,Wunderground v.1.15,2013-05-14 06:59:00,
2013-05-14 02:05:00,44.9,40.7,30.20,NNE,16,0.0,1.0,85,0.00,,,0.00,Wunderground v.1.15,2013-05-14 07:05:00,
2013-05-14 02:10:00,44.6,40.7,30.20,NNE,16,0.0,1.0,86,0.00,,,0.00,Wunderground v.1.15,2013-05-14 07:10:00,
2013-05-14 02:16:00,44.4,40.2,30.20,NNE,16,0.0,1.0,85,0.00,,,0.00,Wunderground v.1.15,2013-05-14 07:16:00,
2013-05-14 02:21:00,44.4,39.6,30.20,NNE,15,0.0,1.0,83,0.00,,,0.00,Wunderground v.1.15,2013-05-14 07:21:00,
2013-05-14 02:27:00,44.4,39.6,30.20,NNE,16,0.0,1.0,83,0.00,,,0.00,Wunderground v.1.15,2013-05-14 07:27:00,
2013-05-14 02:32:00,44.3,39.8,30.20,NNE,16,0.0,1.0,84,0.00,,,0.00,Wunderground v.1.15,2013-05-14 07:32:00,
2013-05-14 02:37:00,44.2,40.0,30.20,NNE,16,0.0,1.0,85,0.00,,,0.00,Wunderground v.1.15,2013-05-14 07:37:00,
2013-05-14 02:43:00,43.9,39.7,30.19,NNE,16,0.0,1.0,85,0.00,,,0.00,Wunderground v.1.15,2013-05-14 07:43:00,
2013-05-14 02:48:00,43.7,39.5,30.19,NNE,16,0.0,1.0,85,0.00,,,0.00,Wunderground v.1.15,2013-05-14 07:48:00,
2013-05-14 02:54:00,43.7,39.2,30.19,NNE,26,0.0,1.0,84,0.00,,,0.00,Wunderground v.1.15,2013-05-14 07:54:00,
2013-05-14 02:59:00,43.9,39.4,30.20,NNE,26,0.0,1.0,84,0.00,,,0.00,Wunderground v.1.15,2013-05-14 07:59:00,
2013-05-14 03:05:00,44.0,39.2,30.19,NNE,24,0.0,1.0,83,0.00,,,0.00,Wunderground v.1.15,2013-05-14 08:05:00,
2013-05-14 03:10:00,43.9,39.1,30.19,NNE,24,0.0,1.0,83,0.00,,,0.00,Wunderground v.1.15,2013-05-14 08:10:00,
2013-05-14 03:16:00,43.6,39.1,30.20,NNE,24,0.0,1.0,84,0.00,,,0.00,Wunderground v.1.15,2013-05-14 08:16:00,
2013-05-14 03:22:00,43.3,38.8,30.20,NNE,24,0.0,1.0,84,0.00,,,0.00,Wunderground v.1.15,2013-05-14 08:22:00,
2013-05-14 03:27:00,43.2,39.0,30.20,NNE,24,0.0,1.0,85,0.00,,,0.00,Wunderground v.1.15,2013-05-14 08:27:00,
2013-05-14 03:33:00,43.1,38.9,30.20,NNE,24,0.0,1.0,85,0.00,,,0.00,Wunderground v.1.15,2013-05-14 08:33:00,
2013-05-14 03:38:00,43.0,39.1,30.20,NNE,24,0.0,1.0,86,0.00,,,0.00,Wunderground v.1.15,2013-05-14 08:38:00,
2013-05-14 03:43:00,43.0,39.1,30.20,NNE,24,0.0,1.0,86,0.00,,,0.00,Wunderground v.1.15,2013-05-14 08:43:00,
2013-05-14 03:49:00,43.0,39.1,30.20,NNE,25,0.0,1.0,86,0.00,,,0.00,Wunderground v.1.15,2013-05-14 08:49:00,
2013-05-14 03:54:00,42.9,39.6,30.19,NNE,25,0.0,1.0,88,0.00,,,0.00,Wunderground v.1.15,2013-05-14 08:54:00,
2013-05-14 04:00:00,42.9,39.6,30.19,NNE,24,0.0,1.0,88,0.00,,,0.00,Wunderground v.1.15,2013-05-14 09:00:00,
2013-05-14 04:05:00,42.8,39.5,30.19,NNE,24,0.0,1.0,88,0.00,,,0.00,Wunderground v.1.15,2013-05-14 09:05:00,
2013-05-14 04:10:00,42.7,39.4,30.19,NNE,24,0.0,1.0,88,0.00,,,0.00,Wunderground v.1.15,2013-05-14 09:10:00,
2013-05-14 04:16:00,42.7,39.4,30.19,NNE,24,0.0,1.0,88,0.00,,,0.00,Wunderground v.1.15,2013-05-14 09:16:00,
2013-05-14 04:21:00,42.6,39.6,30.19,NNE,24,0.0,1.0,89,0.00,,,0.00,Wunderground v.1.15,2013-05-14 09:21:00,
2013-05-14 04:27:00,42.4,39.4,30.19,NNE,24,0.0,1.0,89,0.00,,,0.00,Wunderground v.1.15,2013-05-14 09:27:00,
2013-05-14 04:32:00,42.2,38.9,30.20,NNE,24,0.0,1.0,88,0.00,,,0.00,Wunderground v.1.15,2013-05-14 09:32:00,
2013-05-14 04:37:00,42.2,39.2,30.20,NNE,24,0.0,1.0,89,0.00,,,0.00,Wunderground v.1.15,2013-05-14 09:37:00,
2013-05-14 04:43:00,42.0,39.3,30.20,NNE,24,0.0,1.0,90,0.00,,,0.00,Wunderground v.1.15,2013-05-14 09:43:00,
2013-05-14 04:49:00,41.8,39.4,30.20,NNE,24,0.0,1.0,91,0.00,,,0.00,Wunderground v.1.15,2013-05-14 09:49:00,
2013-05-14 04:54:00,41.7,39.3,30.20,NNE,25,0.0,1.0,91,0.00,,,0.00,Wunderground v.1.15,2013-05-14 09:54:00,
2013-05-14 05:00:00,41.7,39.5,30.20,NNE,24,0.0,1.0,92,0.00,,,0.00,Wunderground v.1.15,2013-05-14 10:00:00,
2013-05-14 05:05:00,41.7,39.3,30.20,NNE,24,0.0,1.0,91,0.00,,,0.00,Wunderground v.1.15,2013-05-14 10:05:00,
2013-05-14 05:11:00,41.7,39.3,30.21,NNE,24,0.0,1.0,91,0.00,,,0.00,Wunderground v.1.15,2013-05-14 10:11:00,
2013-05-14 05:16:00,41.7,39.3,30.21,NNE,24,0.0,1.0,91,0.00,,,0.00,Wunderground v.1.15,2013-05-14 10:16:00,
2013-05-14 05:21:00,41.7,39.3,30.21,NNE,24,0.0,1.0,91,0.00,,,0.00,Wunderground v.1.15,2013-05-14 10:21:00,
2013-05-14 05:27:00,41.7,39.5,30.21,NNE,25,0.0,1.0,92,0.00,,,0.00,Wunderground v.1.15,2013-05-14 10:27:00,
2013-05-14 05:32:00,41.6,39.4,30.22,NNE,24,0.0,1.0,92,0.00,,,0.00,Wunderground v.1.15,2013-05-14 10:32:00,
2013-05-14 05:38:00,41.7,39.3,30.22,NNE,24,0.0,1.0,91,0.00,,,0.00,Wunderground v.1.15,2013-05-14 10:38:00,
2013-05-14 05:43:00,41.8,39.4,30.22,NNE,24,0.0,1.0,91,0.00,,,0.00,Wunderground v.1.15,2013-05-14 10:43:00,
2013-05-14 05:48:00,41.8,39.4,30.22,WSW,247,0.0,1.0,91,0.00,,,0.00,Wunderground v.1.15,2013-05-14 10:48:00,
2013-05-14 05:54:00,41.9,39.5,30.22,WNW,296,0.0,1.0,91,0.00,,,0.00,Wunderground v.1.15,2013-05-14 10:54:00,
2013-05-14 05:59:00,42.0,39.6,30.22,WNW,284,0.0,1.0,91,0.00,,,0.00,Wunderground v.1.15,2013-05-14 10:59:00,
2013-05-14 06:05:00,42.0,39.3,30.22,WNW,283,0.0,1.0,90,0.00,,,0.00,Wunderground v.1.15,2013-05-14 11:05:00,
2013-05-14 06:10:00,42.2,39.5,30.22,WNW,283,0.0,1.0,90,0.00,,,0.00,Wunderground v.1.15,2013-05-14 11:10:00,
2013-05-14 06:15:00,42.3,39.6,30.22,WNW,284,0.0,1.0,90,0.00,,,0.00,Wunderground v.1.15,2013-05-14 11:15:00,
2013-05-14 06:21:00,42.4,40.0,30.22,WNW,283,0.0,1.0,91,0.00,,,0.00,Wunderground v.1.15,2013-05-14 11:21:00,
2013-05-14 06:26:00,42.5,40.1,30.22,WNW,283,0.0,1.0,91,0.00,,,0.00,Wunderground v.1.15,2013-05-14 11:26:00,
2013-05-14 06:32:00,42.7,40.5,30.22,WNW,284,0.0,1.0,92,0.00,,,0.00,Wunderground v.1.15,2013-05-14 11:32:00,
2013-05-14 06:38:00,42.7,40.5,30.22,WNW,283,0.0,1.0,92,0.00,,,0.00,Wunderground v.1.15,2013-05-14 11:38:00,
2013-05-14 06:43:00,42.8,40.6,30.23,WNW,284,0.0,1.0,92,0.00,,,0.00,Wunderground v.1.15,2013-05-14 11:43:00,
2013-05-14 06:49:00,43.2,40.8,30.23,SSW,212,0.0,1.0,91,0.00,,,0.00,Wunderground v.1.15,2013-05-14 11:49:00,
2013-05-14 06:54:00,43.7,41.0,30.23,SSW,212,0.0,1.0,90,0.00,,,0.00,Wunderground v.1.15,2013-05-14 11:54:00,
2013-05-14 06:59:00,44.1,41.4,30.23,SSW,212,0.0,1.0,90,0.00,,,0.00,Wunderground v.1.15,2013-05-14 11:59:00,
2013-05-14 07:05:00,44.7,41.9,30.23,SSW,212,0.0,1.0,90,0.00,,,0.00,Wunderground v.1.15,2013-05-14 12:05:00,
2013-05-14 07:10:00,45.0,42.0,30.23,ESE,116,0.0,1.0,89,0.00,,,0.00,Wunderground v.1.15,2013-05-14 12:10:00,
2013-05-14 07:15:00,45.3,41.7,30.23,ESE,103,0.0,1.0,87,0.00,,,0.00,Wunderground v.1.15,2013-05-14 12:15:00,
2013-05-14 07:21:00,45.7,41.4,30.23,ESE,117,0.0,1.0,85,0.00,,,0.00,Wunderground v.1.15,2013-05-14 12:21:00,
2013-05-14 07:26:00,46.1,41.8,30.23,SSW,213,0.0,1.0,85,0.00,,,0.00,Wunderground v.1.15,2013-05-14 12:26:00,
2013-05-14 07:31:00,46.4,42.1,30.23,WSW,243,0.0,1.0,85,0.00,,,0.00,Wunderground v.1.15,2013-05-14 12:31:00,
2013-05-14 07:37:00,46.9,42.0,30.23,SW,235,0.0,1.0,83,0.00,,,0.00,Wunderground v.1.15,2013-05-14 12:37:00,
2013-05-14 07:43:00,47.6,43.6,30.23,SW,235,0.0,1.0,86,0.00,,,0.00,Wunderground v.1.15,2013-05-14 12:43:00,
2013-05-14 07:49:00,48.1,44.4,30.23,SW,236,0.0,1.0,87,0.00,,,0.00,Wunderground v.1.15,2013-05-14 12:49:00,
2013-05-14 07:54:00,48.5,44.5,30.23,SW,227,0.0,1.0,86,0.00,,,0.00,Wunderground v.1.15,2013-05-14 12:54:00,
2013-05-14 08:00:00,48.9,44.3,30.23,SW,224,0.0,1.0,84,0.00,,,0.00,Wunderground v.1.15,2013-05-14 13:00:00,
2013-05-14 08:05:00,49.3,44.4,30.23,SW,233,0.0,1.0,83,0.00,,,0.00,Wunderground v.1.15,2013-05-14 13:05:00,
2013-05-14 08:10:00,49.8,44.5,30.23,SW,232,0.0,1.0,82,0.00,,,0.00,Wunderground v.1.15,2013-05-14 13:10:00,
2013-05-14 08:16:00,50.4,44.1,30.23,South,181,0.0,1.0,79,0.00,,,0.00,Wunderground v.1.15,2013-05-14 13:16:00,
2013-05-14 08:21:00,50.9,45.3,30.24,WSW,245,0.0,1.0,81,0.00,,,0.00,Wunderground v.1.15,2013-05-14 13:21:00,
2013-05-14 08:27:00,51.5,44.2,30.23,SW,217,0.0,1.0,76,0.00,,,0.00,Wunderground v.1.15,2013-05-14 13:27:00,
2013-05-14 08:33:00,51.9,44.2,30.23,SW,217,1.0,2.0,75,0.00,,,0.00,Wunderground v.1.15,2013-05-14 13:33:00,
2013-05-14 08:38:00,52.4,44.7,30.23,West,262,0.0,2.0,75,0.00,,,0.00,Wunderground v.1.15,2013-05-14 13:38:00,
2013-05-14 08:44:00,53.1,45.0,30.23,WNW,297,0.0,1.0,74,0.00,,,0.00,Wunderground v.1.15,2013-05-14 13:44:00,
2013-05-14 08:49:00,53.6,45.5,30.23,NNW,342,0.0,1.0,74,0.00,,,0.00,Wunderground v.1.15,2013-05-14 13:49:00,
2013-05-14 08:54:00,54.0,45.2,30.23,North,355,0.0,1.0,72,0.00,,,0.00,Wunderground v.1.15,2013-05-14 13:54:00,
2013-05-14 09:00:00,54.7,46.2,30.22,WNW,298,0.0,3.0,73,0.00,,,0.00,Wunderground v.1.15,2013-05-14 14:00:00,
2013-05-14 09:05:00,55.3,46.1,30.22,NNE,23,0.0,3.0,71,0.00,,,0.00,Wunderground v.1.15,2013-05-14 14:05:00,
2013-05-14 09:11:00,55.7,45.7,30.22,NW,306,1.0,3.0,69,0.00,,,0.00,Wunderground v.1.15,2013-05-14 14:11:00,
2013-05-14 09:16:00,56.1,46.1,30.22,WNW,297,1.0,3.0,69,0.00,,,0.00,Wunderground v.1.15,2013-05-14 14:16:00,
2013-05-14 09:22:00,56.7,46.6,30.22,WNW,287,1.0,1.0,69,0.00,,,0.00,Wunderground v.1.15,2013-05-14 14:22:00,
2013-05-14 09:27:00,57.2,45.9,30.22,NE,37,1.0,2.0,66,0.00,,,0.00,Wunderground v.1.15,2013-05-14 14:27:00,
2013-05-14 09:32:00,57.9,46.2,30.22,NNE,13,1.0,1.0,65,0.00,,,0.00,Wunderground v.1.15,2013-05-14 14:32:00,
2013-05-14 09:38:00,58.8,47.1,30.21,North,350,1.0,1.0,65,0.00,,,0.00,Wunderground v.1.15,2013-05-14 14:38:00,
2013-05-14 09:43:00,59.3,46.3,30.21,NE,54,1.0,3.0,62,0.00,,,0.00,Wunderground v.1.15,2013-05-14 14:43:00,
2013-05-14 09:49:00,59.9,46.4,30.21,WNW,298,1.0,3.0,61,0.00,,,0.00,Wunderground v.1.15,2013-05-14 14:49:00,
2013-05-14 09:54:00,60.5,46.1,30.21,West,273,1.0,4.0,59,0.00,,,0.00,Wunderground v.1.15,2013-05-14 14:54:00,
2013-05-14 10:00:00,61.4,46.9,30.21,North,7,1.0,1.0,59,0.00,,,0.00,Wunderground v.1.15,2013-05-14 15:00:00,
2013-05-14 10:05:00,61.9,47.9,30.21,NW,311,1.0,4.0,60,0.00,,,0.00,Wunderground v.1.15,2013-05-14 15:05:00,
2013-05-14 10:10:00,62.3,47.3,30.20,North,355,2.0,2.0,58,0.00,,,0.00,Wunderground v.1.15,2013-05-14 15:10:00,
2013-05-14 10:16:00,63.3,48.3,30.21,North,353,2.0,2.0,58,0.00,,,0.00,Wunderground v.1.15,2013-05-14 15:16:00,
2013-05-14 10:21:00,64.0,48.9,30.21,NE,37,1.0,2.0,58,0.00,,,0.00,Wunderground v.1.15,2013-05-14 15:21:00,
2013-05-14 10:27:00,64.7,49.6,30.20,NNE,25,2.0,3.0,58,0.00,,,0.00,Wunderground v.1.15,2013-05-14 15:27:00,
2013-05-14 10:32:00,65.4,48.8,30.20,NNE,27,2.0,3.0,55,0.00,,,0.00,Wunderground v.1.15,2013-05-14 15:32:00,
2013-05-14 10:38:00,65.9,49.3,30.20,NNW,342,3.0,3.0,55,0.00,,,0.00,Wunderground v.1.15,2013-05-14 15:38:00,
2013-05-14 10:43:00,66.6,49.4,30.19,NNE,21,3.0,3.0,54,0.00,,,0.00,Wunderground v.1.15,2013-05-14 15:43:00,
2013-05-14 10:49:00,67.4,50.2,30.19,NNE,22,3.0,6.0,54,0.00,,,0.00,Wunderground v.1.15,2013-05-14 15:49:00,
2013-05-14 10:54:00,68.4,52.6,30.19,ESE,116,3.0,5.0,57,0.00,,,0.00,Wunderground v.1.15,2013-05-14 15:54:00,
2013-05-14 10:59:00,68.8,51.0,30.19,ENE,62,3.0,5.0,53,0.00,,,0.00,Wunderground v.1.15,2013-05-14 15:59:00,
2013-05-14 11:05:00,69.2,50.8,30.19,East,79,3.0,4.0,52,0.00,,,0.00,Wunderground v.1.15,2013-05-14 16:05:00,
2013-05-14 11:10:00,69.5,51.1,30.18,North,3,4.0,4.0,52,0.00,,,0.00,Wunderground v.1.15,2013-05-14 16:10:00,
2013-05-14 11:16:00,70.1,51.7,30.19,ENE,61,3.0,7.0,52,0.00,,,0.00,Wunderground v.1.15,2013-05-14 16:16:00,
2013-05-14 11:21:00,70.8,53.8,30.19,NNE,20,3.0,3.0,55,0.00,,,0.00,Wunderground v.1.15,2013-05-14 16:21:00,
2013-05-14 11:27:00,71.4,52.9,30.18,East,101,3.0,6.0,52,0.00,,,0.00,Wunderground v.1.15,2013-05-14 16:27:00,
2013-05-14 11:32:00,71.6,52.5,30.18,NNW,332,3.0,3.0,51,0.00,,,0.00,Wunderground v.1.15,2013-05-14 16:32:00,
2013-05-14 11:38:00,71.6,52.5,30.18,ENE,78,4.0,5.0,51,0.00,,,0.00,Wunderground v.1.15,2013-05-14 16:38:00,
2013-05-14 11:43:00,71.9,52.8,30.18,North,351,4.0,4.0,51,0.00,,,0.00,Wunderground v.1.15,2013-05-14 16:43:00,
2013-05-14 11:48:00,72.0,52.3,30.17,ENE,71,4.0,6.0,50,0.00,,,0.00,Wunderground v.1.15,2013-05-14 16:48:00,
2013-05-14 11:54:00,72.8,53.1,30.17,NNW,337,4.0,4.0,50,0.00,,,0.00,Wunderground v.1.15,2013-05-14 16:54:00,
2013-05-14 11:59:00,72.9,53.2,30.17,NE,52,4.0,5.0,50,0.00,,,0.00,Wunderground v.1.15,2013-05-14 16:59:00,
2013-05-14 12:05:00,73.2,55.0,30.17,NW,317,4.0,5.0,53,0.00,,,0.00,Wunderground v.1.15,2013-05-14 17:05:00,
2013-05-14 12:10:00,73.5,53.2,30.16,NNW,341,4.0,4.0,49,0.00,,,0.00,Wunderground v.1.15,2013-05-14 17:10:00,
2013-05-14 12:15:00,74.0,53.6,30.16,NW,320,4.0,5.0,49,0.00,,,0.00,Wunderground v.1.15,2013-05-14 17:15:00,
2013-05-14 12:21:00,74.4,53.4,30.16,NE,50,3.0,3.0,48,0.00,,,0.00,Wunderground v.1.15,2013-05-14 17:21:00,
2013-05-14 12:26:00,74.6,54.7,30.16,NNE,19,3.0,6.0,50,0.00,,,0.00,Wunderground v.1.15,2013-05-14 17:26:00,
2013-05-14 12:32:00,74.9,53.3,30.15,NW,319,3.0,4.0,47,0.00,,,0.00,Wunderground v.1.15,2013-05-14 17:32:00,
2013-05-14 12:37:00,75.1,55.2,30.15,WNW,302,3.0,7.0,50,0.00,,,0.00,Wunderground v.1.15,2013-05-14 17:37:00,
2013-05-14 12:42:00,75.4,54.9,30.15,WNW,303,3.0,5.0,49,0.00,,,0.00,Wunderground v.1.15,2013-05-14 17:42:00,
2013-05-14 12:48:00,75.4,54.3,30.15,NNE,23,4.0,7.0,48,0.00,,,0.00,Wunderground v.1.15,2013-05-14 17:48:00,
2013-05-14 12:53:00,75.3,54.3,30.15,NE,34,4.0,5.0,48,0.00,,,0.00,Wunderground v.1.15,2013-05-14 17:53:00,
2013-05-14 12:59:00,76.1,55.5,30.14,NW,313,3.0,5.0,49,0.00,,,0.00,Wunderground v.1.15,2013-05-14 17:59:00,
2013-05-14 13:04:00,76.8,55.6,30.14,North,5,3.0,10.0,48,0.00,,,0.00,Wunderground v.1.15,2013-05-14 18:04:00,
2013-05-14 13:09:00,77.2,56.0,30.14,NNW,339,3.0,10.0,48,0.00,,,0.00,Wunderground v.1.15,2013-05-14 18:09:00,
2013-05-14 13:15:00,77.0,56.9,30.13,North,10,3.0,7.0,50,0.00,,,0.00,Wunderground v.1.15,2013-05-14 18:15:00,
2013-05-14 13:20:00,77.3,55.5,30.13,West,271,3.0,3.0,47,0.00,,,0.00,Wunderground v.1.15,2013-05-14 18:20:00,
2013-05-14 13:25:00,77.3,54.9,30.13,West,275,4.0,7.0,46,0.00,,,0.00,Wunderground v.1.15,2013-05-14 18:25:00,
2013-05-14 13:31:00,77.6,56.9,30.12,NW,325,3.0,4.0,49,0.00,,,0.00,Wunderground v.1.15,2013-05-14 18:31:00,
2013-05-14 13:36:00,77.8,58.2,30.12,North,351,3.0,4.0,51,0.00,,,0.00,Wunderground v.1.15,2013-05-14 18:36:00,
2013-05-14 13:42:00,78.0,55.5,30.12,NNW,338,3.0,4.0,46,0.00,,,0.00,Wunderground v.1.15,2013-05-14 18:42:00,
2013-05-14 13:47:00,78.1,56.8,30.11,North,7,3.0,6.0,48,0.00,,,0.00,Wunderground v.1.15,2013-05-14 18:47:00,
2013-05-14 13:52:00,77.9,56.0,30.11,North,1,3.0,4.0,47,0.00,,,0.00,Wunderground v.1.15,2013-05-14 18:52:00,
2013-05-14 13:58:00,78.1,55.6,30.11,East,93,3.0,5.0,46,0.00,,,0.00,Wunderground v.1.15,2013-05-14 18:58:00,
2013-05-14 14:03:00,78.1,55.6,30.11,NNE,26,4.0,7.0,46,0.00,,,0.00,Wunderground v.1.15,2013-05-14 19:03:00,
2013-05-14 14:09:00,78.0,56.1,30.10,NNW,334,4.0,7.0,47,0.00,,,0.00,Wunderground v.1.15,2013-05-14 19:09:00,
2013-05-14 14:14:00,78.4,57.1,30.10,NNW,331,3.0,4.0,48,0.00,,,0.00,Wunderground v.1.15,2013-05-14 19:14:00,
2013-05-14 14:19:00,79.1,57.1,30.10,ENE,71,3.0,4.0,47,0.00,,,0.00,Wunderground v.1.15,2013-05-14 19:19:00,
2013-05-14 14:25:00,78.9,56.4,30.10,North,9,3.0,6.0,46,0.00,,,0.00,Wunderground v.1.15,2013-05-14 19:25:00,
2013-05-14 14:30:00,78.9,56.4,30.09,North,10,4.0,4.0,46,0.00,,,0.00,Wunderground v.1.15,2013-05-14 19:30:00,
2013-05-14 14:36:00,78.8,56.9,30.09,North,352,4.0,6.0,47,0.00,,,0.00,Wunderground v.1.15,2013-05-14 19:36:00,
2013-05-14 14:41:00,78.7,56.2,30.09,NW,313,4.0,6.0,46,0.00,,,0.00,Wunderground v.1.15,2013-05-14 19:41:00,
2013-05-14 14:46:00,78.9,58.1,30.09,NE,38,4.0,6.0,49,0.00,,,0.00,Wunderground v.1.15,2013-05-14 19:46:00,
2013-05-14 14:52:00,78.7,57.4,30.09,NE,36,5.0,8.0,48,0.00,,,0.00,Wunderground v.1.15,2013-05-14 19:52:00,
2013-05-14 14:57:00,79.1,58.3,30.08,WNW,297,4.0,8.0,49,0.00,,,0.00,Wunderground v.1.15,2013-05-14 19:57:00,
2013-05-14 15:03:00,79.2,57.2,30.08,NE,40,3.0,4.0,47,0.00,,,0.00,Wunderground v.1.15,2013-05-14 20:03:00,
2013-05-14 15:08:00,79.3,56.7,30.08,North,10,3.0,5.0,46,0.00,,,0.00,Wunderground v.1.15,2013-05-14 20:08:00,
2013-05-14 15:13:00,79.2,57.2,30.08,North,354,4.0,4.0,47,0.00,,,0.00,Wunderground v.1.15,2013-05-14 20:13:00,
2013-05-14 15:19:00,79.4,58.0,30.07,NE,40,4.0,6.0,48,0.00,,,0.00,Wunderground v.1.15,2013-05-14 20:19:00,
2013-05-14 15:24:00,79.5,56.9,30.07,ESE,103,3.0,4.0,46,0.00,,,0.00,Wunderground v.1.15,2013-05-14 20:24:00,
2013-05-14 15:30:00,79.3,57.9,30.07,ENE,71,4.0,4.0,48,0.00,,,0.00,Wunderground v.1.15,2013-05-14 20:30:00,
2013-05-14 15:35:00,79.3,57.9,30.07,NNE,23,4.0,4.0,48,0.00,,,0.00,Wunderground v.1.15,2013-05-14 20:35:00,
2013-05-14 15:40:00,79.3,57.9,30.07,NE,39,3.0,3.0,48,0.00,,,0.00,Wunderground v.1.15,2013-05-14 20:40:00,
2013-05-14 15:46:00,79.6,58.2,30.07,East,92,3.0,3.0,48,0.00,,,0.00,Wunderground v.1.15,2013-05-14 20:46:00,
2013-05-14 15:51:00,79.8,58.4,30.07,NW,321,3.0,3.0,48,0.00,,,0.00,Wunderground v.1.15,2013-05-14 20:51:00,
2013-05-14 15:56:00,80.2,59.9,30.06,NE,34,3.0,5.0,50,0.00,,,0.00,Wunderground v.1.15,2013-05-14 20:56:00,
2013-05-14 16:02:00,80.3,60.0,30.06,North,5,2.0,3.0,50,0.00,,,0.00,Wunderground v.1.15,2013-05-14 21:02:00,
2013-05-14 16:07:00,80.0,58.5,30.06,NNE,32,3.0,10.0,48,0.00,,,0.00,Wunderground v.1.15,2013-05-14 21:07:00,
2013-05-14 16:13:00,79.7,57.7,30.06,ENE,60,3.0,5.0,47,0.00,,,0.00,Wunderground v.1.15,2013-05-14 21:13:00,
2013-05-14 16:18:00,79.5,58.1,30.06,North,5,4.0,5.0,48,0.00,,,0.00,Wunderground v.1.15,2013-05-14 21:18:00,
2013-05-14 16:23:00,79.4,57.4,30.06,NNE,23,4.0,4.0,47,0.00,,,0.00,Wunderground v.1.15,2013-05-14 21:23:00,
2013-05-14 16:29:00,79.5,59.2,30.06,WNW,284,3.0,5.0,50,0.00,,,0.00,Wunderground v.1.15,2013-05-14 21:29:00,
2013-05-14 16:34:00,79.4,58.6,30.06,ENE,69,3.0,4.0,49,0.00,,,0.00,Wunderground v.1.15,2013-05-14 21:34:00,
2013-05-14 16:40:00,78.9,58.1,30.06,NE,48,3.0,6.0,49,0.00,,,0.00,Wunderground v.1.15,2013-05-14 21:40:00,
2013-05-14 16:45:00,78.7,57.9,30.06,NNW,347,3.0,6.0,49,0.00,,,0.00,Wunderground v.1.15,2013-05-14 21:45:00,
2013-05-14 16:50:00,78.5,57.7,30.06,North,358,3.0,5.0,49,0.00,,,0.00,Wunderground v.1.15,2013-05-14 21:50:00,
2013-05-14 16:56:00,78.1,57.4,30.06,NNE,15,3.0,5.0,49,0.00,,,0.00,Wunderground v.1.15,2013-05-14 21:56:00,
2013-05-14 17:02:00,78.0,57.9,30.05,East,85,3.0,5.0,50,0.00,,,0.00,Wunderground v.1.15,2013-05-14 22:02:00,
2013-05-14 17:07:00,78.0,58.4,30.05,ENE,64,3.0,5.0,51,0.00,,,0.00,Wunderground v.1.15,2013-05-14 22:07:00,
2013-05-14 17:13:00,78.0,58.9,30.05,NNE,20,2.0,4.0,52,0.00,,,0.00,Wunderground v.1.15,2013-05-14 22:13:00,
2013-05-14 17:18:00,77.7,57.6,30.05,NNE,22,3.0,4.0,50,0.00,,,0.00,Wunderground v.1.15,2013-05-14 22:18:00,
2013-05-14 17:23:00,77.5,57.4,30.05,WNW,283,3.0,4.0,50,0.00,,,0.00,Wunderground v.1.15,2013-05-14 22:23:00,
2013-05-14 17:29:00,77.3,57.8,30.05,North,356,3.0,4.0,51,0.00,,,0.00,Wunderground v.1.15,2013-05-14 22:29:00,
2013-05-14 17:34:00,77.1,58.1,30.04,ENE,58,3.0,3.0,52,0.00,,,0.00,Wunderground v.1.15,2013-05-14 22:34:00,
2013-05-14 17:40:00,77.0,57.5,30.04,North,354,3.0,4.0,51,0.00,,,0.00,Wunderground v.1.15,2013-05-14 22:40:00,
2013-05-14 17:45:00,76.8,57.3,30.04,North,354,3.0,4.0,51,0.00,,,0.00,Wunderground v.1.15,2013-05-14 22:45:00,
2013-05-14 17:51:00,76.7,57.7,30.04,NE,37,3.0,4.0,52,0.00,,,0.00,Wunderground v.1.15,2013-05-14 22:51:00,
2013-05-14 17:56:00,76.5,57.6,30.04,West,277,3.0,5.0,52,0.00,,,0.00,Wunderground v.1.15,2013-05-14 22:56:00,
2013-05-14 18:01:00,76.5,58.1,30.04,North,356,3.0,3.0,53,0.00,,,0.00,Wunderground v.1.15,2013-05-14 23:01:00,
2013-05-14 18:07:00,76.3,57.9,30.04,NNW,327,3.0,5.0,53,0.00,,,0.00,Wunderground v.1.15,2013-05-14 23:07:00,
2013-05-14 18:12:00,76.2,57.8,30.04,NNW,347,2.0,3.0,53,0.00,,,0.00,Wunderground v.1.15,2013-05-14 23:12:00,
2013-05-14 18:18:00,76.1,57.7,30.03,North,351,3.0,3.0,53,0.00,,,0.00,Wunderground v.1.15,2013-05-14 23:18:00,
2013-05-14 18:23:00,76.0,57.6,30.04,NNE,22,3.0,3.0,53,0.00,,,0.00,Wunderground v.1.15,2013-05-14 23:23:00,
2013-05-14 18:28:00,75.8,58.0,30.04,ENE,60,2.0,4.0,54,0.00,,,0.00,Wunderground v.1.15,2013-05-14 23:28:00,
2013-05-14 18:34:00,75.7,57.9,30.04,NNE,20,3.0,3.0,54,0.00,,,0.00,Wunderground v.1.15,2013-05-14 23:34:00,
2013-05-14 18:39:00,75.6,57.8,30.04,NE,37,3.0,4.0,54,0.00,,,0.00,Wunderground v.1.15,2013-05-14 23:39:00,
2013-05-14 18:45:00,75.5,57.7,30.04,NW,313,3.0,4.0,54,0.00,,,0.00,Wunderground v.1.15,2013-05-14 23:45:00,
2013-05-14 18:50:00,75.5,58.2,30.04,NE,50,3.0,3.0,55,0.00,,,0.00,Wunderground v.1.15,2013-05-14 23:50:00,
2013-05-14 18:55:00,75.2,57.9,30.04,North,349,2.0,6.0,55,0.00,,,0.00,Wunderground v.1.15,2013-05-14 23:55:00,
2013-05-14 19:01:00,75.0,58.2,30.04,North,356,2.0,2.0,56,0.00,,,0.00,Wunderground v.1.15,2013-05-15 00:01:00,
2013-05-14 19:06:00,74.8,58.1,30.04,NNE,20,3.0,6.0,56,0.00,,,0.00,Wunderground v.1.15,2013-05-15 00:06:00,
2013-05-14 19:11:00,74.6,57.9,30.04,ENE,61,3.0,3.0,56,0.00,,,0.00,Wunderground v.1.15,2013-05-15 00:11:00,
2013-05-14 19:17:00,74.2,58.0,30.04,NNE,22,2.0,3.0,57,0.00,,,0.00,Wunderground v.1.15,2013-05-15 00:17:00,
2013-05-14 19:22:00,74.1,57.9,30.04,NNE,15,2.0,2.0,57,0.00,,,0.00,Wunderground v.1.15,2013-05-15 00:22:00,
2013-05-14 19:28:00,73.8,57.6,30.03,ENE,78,2.0,3.0,57,0.00,,,0.00,Wunderground v.1.15,2013-05-15 00:28:00,
2013-05-14 19:33:00,73.7,57.5,30.03,NNE,29,2.0,2.0,57,0.00,,,0.00,Wunderground v.1.15,2013-05-15 00:33:00,
2013-05-14 19:39:00,73.5,57.8,30.04,NNW,343,3.0,4.0,58,0.00,,,0.00,Wunderground v.1.15,2013-05-15 00:39:00,
2013-05-14 19:45:00,73.3,57.6,30.04,North,352,3.0,3.0,58,0.00,,,0.00,Wunderground v.1.15,2013-05-15 00:45:00,
2013-05-14 19:50:00,73.1,57.9,30.04,NE,40,2.0,3.0,59,0.00,,,0.00,Wunderground v.1.15,2013-05-15 00:50:00,
2013-05-14 19:56:00,72.8,57.6,30.04,NNW,345,2.0,4.0,59,0.00,,,0.00,Wunderground v.1.15,2013-05-15 00:56:00,
2013-05-14 20:02:00,72.7,57.5,30.04,NNE,26,3.0,3.0,59,0.00,,,0.00,Wunderground v.1.15,2013-05-15 01:02:00,
2013-05-14 20:07:00,72.5,57.4,30.04,NNE,32,3.0,3.0,59,0.00,,,0.00,Wunderground v.1.15,2013-05-15 01:07:00,
2013-05-14 20:13:00,72.2,57.5,30.04,NE,34,2.0,2.0,60,0.00,,,0.00,Wunderground v.1.15,2013-05-15 01:13:00,
2013-05-14 20:18:00,72.0,57.4,30.04,NNE,32,2.0,2.0,60,0.00,,,0.00,Wunderground v.1.15,2013-05-15 01:18:00,
2013-05-14 20:23:00,71.9,57.7,30.04,NNE,30,3.0,4.0,61,0.00,,,0.00,Wunderground v.1.15,2013-05-15 01:23:00,
2013-05-14 20:29:00,71.6,57.4,30.04,NNE,29,2.0,4.0,61,0.00,,,0.00,Wunderground v.1.15,2013-05-15 01:29:00,
2013-05-14 20:34:00,71.4,57.7,30.04,NNE,13,2.0,5.0,62,0.00,,,0.00,Wunderground v.1.15,2013-05-15 01:34:00,
2013-05-14 20:40:00,71.2,57.5,30.05,North,10,2.0,2.0,62,0.00,,,0.00,Wunderground v.1.15,2013-05-15 01:40:00,
2013-05-14 20:45:00,71.1,57.9,30.05,NNE,12,2.0,2.0,63,0.00,,,0.00,Wunderground v.1.15,2013-05-15 01:45:00,
2013-05-14 20:50:00,71.2,57.5,30.05,NNE,20,2.0,2.0,62,0.00,,,0.00,Wunderground v.1.15,2013-05-15 01:50:00,
2013-05-14 20:56:00,71.1,57.9,30.05,NE,37,2.0,2.0,63,0.00,,,0.00,Wunderground v.1.15,2013-05-15 01:56:00,
2013-05-14 21:01:00,70.9,57.7,30.05,NE,36,2.0,2.0,63,0.00,,,0.00,Wunderground v.1.15,2013-05-15 02:01:00,
2013-05-14 21:07:00,70.9,57.7,30.05,NNE,13,2.0,4.0,63,0.00,,,0.00,Wunderground v.1.15,2013-05-15 02:07:00,
2013-05-14 21:12:00,70.8,57.6,30.05,NNW,345,3.0,3.0,63,0.00,,,0.00,Wunderground v.1.15,2013-05-15 02:12:00,
2013-05-14 21:17:00,70.7,57.9,30.06,North,3,2.0,3.0,64,0.00,,,0.00,Wunderground v.1.15,2013-05-15 02:17:00,
2013-05-14 21:23:00,70.7,57.9,30.06,NNE,30,2.0,3.0,64,0.00,,,0.00,Wunderground v.1.15,2013-05-15 02:23:00,
2013-05-14 21:28:00,70.6,57.8,30.06,NNE,13,2.0,4.0,64,0.00,,,0.00,Wunderground v.1.15,2013-05-15 02:28:00,
2013-05-14 21:34:00,70.5,57.7,30.06,North,350,2.0,5.0,64,0.00,,,0.00,Wunderground v.1.15,2013-05-15 02:34:00,
2013-05-14 21:39:00,70.3,58.0,30.06,NE,41,2.0,5.0,65,0.00,,,0.00,Wunderground v.1.15,2013-05-15 02:39:00,
2013-05-14 21:45:00,70.1,57.8,30.06,NNW,348,2.0,3.0,65,0.00,,,0.00,Wunderground v.1.15,2013-05-15 02:45:00,
2013-05-14 21:50:00,69.9,57.6,30.06,NE,51,2.0,2.0,65,0.00,,,0.00,Wunderground v.1.15,2013-05-15 02:50:00,
2013-05-14 21:55:00,69.7,57.8,30.06,NNW,327,2.0,8.0,66,0.00,,,0.00,Wunderground v.1.15,2013-05-15 02:55:00,
2013-05-14 22:01:00,69.7,57.8,30.06,North,1,2.0,2.0,66,0.00,,,0.00,Wunderground v.1.15,2013-05-15 03:01:00,
2013-05-14 22:06:00,69.6,57.7,30.07,NE,36,2.0,3.0,66,0.00,,,0.00,Wunderground v.1.15,2013-05-15 03:06:00,
2013-05-14 22:12:00,69.5,57.6,30.06,NE,40,2.0,2.0,66,0.00,,,0.00,Wunderground v.1.15,2013-05-15 03:12:00,
2013-05-14 22:17:00,69.4,58.0,30.06,NE,48,2.0,2.0,67,0.00,,,0.00,Wunderground v.1.15,2013-05-15 03:17:00,
2013-05-14 22:22:00,69.1,58.1,30.06,NNE,29,2.0,2.0,68,0.00,,,0.00,Wunderground v.1.15,2013-05-15 03:22:00,
2013-05-14 22:28:00,69.0,58.0,30.06,East,84,2.0,4.0,68,0.00,,,0.00,Wunderground v.1.15,2013-05-15 03:28:00,
2013-05-14 22:33:00,68.6,57.6,30.06,WNW,289,2.0,2.0,68,0.00,,,0.00,Wunderground v.1.15,2013-05-15 03:33:00,
2013-05-14 22:38:00,68.4,57.8,30.06,NE,55,2.0,2.0,69,0.00,,,0.00,Wunderground v.1.15,2013-05-15 03:38:00,
2013-05-14 22:44:00,68.0,57.8,30.06,NE,36,1.0,2.0,70,0.00,,,0.00,Wunderground v.1.15,2013-05-15 03:44:00,
2013-05-14 22:49:00,67.7,57.6,30.06,NE,48,1.0,3.0,70,0.00,,,0.00,Wunderground v.1.15,2013-05-15 03:49:00,
2013-05-14 22:54:00,67.6,57.9,30.06,NNE,22,1.0,2.0,71,0.00,,,0.00,Wunderground v.1.15,2013-05-15 03:54:00,
2013-05-14 23:00:00,67.5,57.8,30.06,NE,39,2.0,4.0,71,0.00,,,0.00,Wunderground v.1.15,2013-05-15 04:00:00,
2013-05-14 23:01:00,67.4,57.7,30.06,NNW,330,2.0,4.0,71,0.00,,,0.00,Wunderground v.1.15,2013-05-15 04:01:00,
2013-05-14 23:03:00,67.3,57.6,30.06,ENE,61,2.0,4.0,71,0.00,,,0.00,Wunderground v.1.15,2013-05-15 04:03:00,
2013-05-14 23:04:00,67.3,57.6,30.06,NNE,19,2.0,4.0,71,0.00,,,0.00,Wunderground v.1.15,2013-05-15 04:04:00,
2013-05-14 23:06:00,67.3,57.6,30.06,NE,51,2.0,4.0,71,0.00,,,0.00,Wunderground v.1.15,2013-05-15 04:06:00,
2013-05-14 23:12:00,67.1,57.8,30.06,NW,325,1.0,2.0,72,0.00,,,0.00,Wunderground v.1.15,2013-05-15 04:12:00,
2013-05-14 23:17:00,66.9,57.6,30.06,NE,36,1.0,3.0,72,0.00,,,0.00,Wunderground v.1.15,2013-05-15 04:17:00,
2013-05-14 23:23:00,66.7,57.8,30.06,NNE,27,2.0,2.0,73,0.00,,,0.00,Wunderground v.1.15,2013-05-15 04:23:00,
2013-05-14 23:28:00,66.6,57.7,30.06,NE,44,1.0,3.0,73,0.00,,,0.00,Wunderground v.1.15,2013-05-15 04:28:00,
2013-05-14 23:33:00,66.5,57.6,30.06,ENE,71,1.0,3.0,73,0.00,,,0.00,Wunderground v.1.15,2013-05-15 04:33:00,
2013-05-14 23:39:00,66.4,57.9,30.06,NE,55,1.0,3.0,74,0.00,,,0.00,Wunderground v.1.15,2013-05-15 04:39:00,
2013-05-14 23:44:00,66.3,57.8,30.06,ENE,58,2.0,3.0,74,0.00,,,0.00,Wunderground v.1.15,2013-05-15 04:44:00,
2013-05-14 23:50:00,66.2,57.7,30.06,NE,46,2.0,3.0,74,0.00,,,0.00,Wunderground v.1.15,2013-05-15 04:50:00,
2013-05-14 23:55:00,66.0,57.5,30.06,ENE,64,1.0,3.0,74,0.00,,,0.00,Wunderground v.1.15,2013-05-15 04:55:00,